Date String (YYYY-MM-DD hh:mm:ss) UTC,Instrument flags,absolute air pressure of the measurement (hPa),sample flow rate (lpm),inlet stack bypass flow (lpm),air temperature of the measurement (°C),ambient temperature measured by the external sensor (°C),aerosol sample conditioner tube jacket temperature (°C),OPC LED temperature (°C),internal box temperature (°C),relative humidity of the measurement (%),span deviation,mass concentration of particles derived from Lorenz-Mie calculation of OPC scattering (μg/m³),mass concentration of particles derived from Lorenz-Mie calculation of OPC scattering (μg/m³),mass concentration of particles derived from Lorenz-Mie calculation of OPC scattering (μg/m³)
DateTimeUTC,F1_M11,P_M11,Q1_M11,Q2_M11,T1_M11,T2_M11,T3_M11,T4_M11,T5_M11,U1_M11,ZSPAN_M11,X0_M11,X2_M11,X1_M11
2024-01-24 12:00:00,SystemResetWarning,0825.9,4.99,000.00,021.6,020.7,000.0,030.0,023.0,18.6,0002.6,0013.49,0008.81,0008.27
2024-01-24 12:01:00,SystemResetWarning,0825.9,4.99,000.00,021.6,020.7,000.0,030.0,023.0,18.6,0002.0,0013.52,0008.87,0008.34
2024-01-24 12:02:00,SystemResetWarning,0825.9,5.00,000.00,021.6,020.6,000.0,030.0,023.0,18.5,0001.8,0013.52,0008.91,0008.38
2024-01-24 12:03:00,SystemResetWarning,0825.9,5.00,000.00,021.6,020.6,000.0,030.0,023.0,18.5,0002.1,0013.63,0008.95,0008.39
2024-01-24 12:04:00,SystemResetWarning,0825.9,5.00,000.00,021.6,020.6,000.0,030.0,023.0,18.6,0001.9,0013.72,0008.92,0008.35
2024-01-24 12:05:00,SystemResetWarning,0825.9,5.01,000.00,021.6,020.6,000.0,030.0,023.0,18.6,0001.9,0013.54,0008.82,0008.26
2024-01-24 12:06:00,SystemResetWarning,0825.8,5.00,000.00,021.6,020.6,000.0,030.0,023.0,18.6,0001.4,0013.75,0008.70,0008.16
2024-01-24 12:07:00,SystemResetWarning,0825.8,5.00,000.00,021.6,020.7,000.0,030.0,023.0,18.5,0001.7,0013.62,0008.62,0008.08
2024-01-24 12:08:00,SystemResetWarning,0825.9,5.01,000.00,021.6,020.7,000.0,030.0,023.0,18.6,0001.9,0013.14,0008.54,0008.00
2024-01-24 12:09:00,SystemResetWarning,0825.9,5.01,000.00,021.6,020.7,000.0,030.0,023.0,18.4,0002.3,0012.08,0008.38,0007.87
2024-01-24 12:10:00,SystemResetWarning,0825.9,5.00,000.00,021.6,020.7,000.0,030.0,023.0,18.4,0002.3,0011.60,0008.25,0007.75
2024-01-24 12:11:00,SystemResetWarning,0825.9,4.99,000.00,021.6,020.6,000.0,030.0,023.0,18.5,0002.6,0011.41,0008.15,0007.68
2024-01-24 12:12:00,SystemResetWarning,0825.9,5.00,000.00,021.6,020.6,000.0,030.0,023.0,18.5,0003.1,0011.47,0008.10,0007.65
2024-01-24 12:13:00,SystemResetWarning,0825.9,5.00,000.00,021.6,020.6,000.0,030.0,023.0,18.5,0003.3,0011.67,0008.10,0007.65
2024-01-24 12:14:00,SystemResetWarning,0825.9,5.00,000.00,021.6,020.6,000.0,030.0,023.0,18.5,0003.1,0011.72,0008.10,0007.67
2024-01-24 12:15:00,SystemResetWarning,0825.9,5.01,000.00,021.6,020.6,000.0,030.0,023.0,18.1,0003.3,0011.74,0008.14,0007.72
2024-01-24 12:16:00,SystemResetWarning,0825.9,5.00,000.00,021.6,020.6,000.0,030.0,023.0,17.8,0003.3,0011.79,0008.23,0007.79
2024-01-24 12:17:00,SystemResetWarning,0826.0,4.99,000.00,021.6,020.6,000.0,030.0,023.0,17.4,0003.6,0011.60,0008.31,0007.87
2024-01-24 12:18:00,SystemResetWarning,0826.0,4.99,000.00,021.6,020.6,000.0,030.0,022.9,17.3,0003.4,0011.64,0008.38,0007.93
2024-01-24 12:19:00,SystemResetWarning,0826.0,4.99,000.00,021.6,020.6,000.0,030.0,022.9,17.7,0002.9,0011.78,0008.48,0008.01
2024-01-24 12:20:00,SystemResetWarning,0826.0,5.00,000.00,021.5,020.6,000.0,030.0,022.9,17.8,0003.0,0012.11,0008.60,0008.11
2024-01-24 12:21:00,SystemResetWarning,0826.0,5.00,000.00,021.5,020.6,000.0,030.0,022.8,17.9,0003.1,0012.30,0008.71,0008.20
2024-01-24 12:22:00,SystemResetWarning,0826.1,5.00,000.00,021.5,020.6,000.0,030.0,022.8,17.9,0003.1,0012.58,0008.81,0008.27
2024-01-24 12:23:00,SystemResetWarning,0826.2,5.00,000.00,021.5,020.6,000.0,029.9,022.9,17.8,0002.8,0012.82,0008.85,0008.31
2024-01-24 12:24:00,SystemResetWarning,0826.2,5.00,000.00,021.5,020.5,000.0,029.9,022.9,17.8,0002.7,0013.38,0008.87,0008.30
2024-01-24 12:25:00,SystemResetWarning,0826.2,5.00,000.00,021.5,020.5,000.0,029.9,022.9,17.7,0002.6,0013.44,0008.86,0008.27
2024-01-24 12:26:00,SystemResetWarning,0826.2,5.01,000.00,021.5,020.5,000.0,029.9,022.9,17.5,0002.5,0013.30,0008.84,0008.25
2024-01-24 12:27:00,SystemResetWarning,0826.2,5.00,000.00,021.5,020.5,000.0,029.9,022.9,17.4,0002.4,0013.28,0008.82,0008.24
2024-01-24 12:28:00,SystemResetWarning,0826.2,5.00,000.00,021.5,020.5,000.0,029.9,022.8,17.4,0002.2,0013.37,0008.85,0008.26
2024-01-24 12:29:00,SystemResetWarning,0826.2,5.00,000.00,021.5,020.5,000.0,029.9,022.9,17.4,0002.2,0013.53,0008.91,0008.29
2024-01-24 12:30:00,SystemResetWarning,0826.2,5.00,000.00,021.5,020.5,000.0,029.9,022.9,17.4,0002.4,0013.53,0008.90,0008.30
2024-01-24 12:31:00,SystemResetWarning,0826.2,5.00,000.00,021.5,020.5,000.0,029.9,022.9,17.2,0002.2,0013.39,0008.90,0008.29
2024-01-24 12:32:00,SystemResetWarning,0826.3,5.00,000.00,021.5,020.5,000.0,029.9,022.9,17.1,0002.1,0013.24,0008.85,0008.26
2024-01-24 12:33:00,SystemResetWarning,0826.3,5.00,000.00,021.5,020.5,000.0,029.9,022.9,17.0,0002.1,0013.30,0008.82,0008.23
2024-01-24 12:34:00,SystemResetWarning,0826.2,5.00,000.00,021.5,020.5,000.0,029.9,022.9,16.8,0002.3,0013.48,0008.84,0008.21
2024-01-24 12:35:00,SystemResetWarning,0826.2,5.00,000.00,021.5,020.6,000.0,029.9,022.9,16.5,0002.6,0012.68,0008.78,0008.19
2024-01-24 12:36:00,SystemResetWarning,0826.2,5.00,000.00,021.5,020.6,000.0,029.9,022.9,16.3,0002.4,0012.54,0008.77,0008.21
2024-01-24 12:37:00,SystemResetWarning,0826.3,5.00,000.00,021.5,020.6,000.0,029.9,022.9,16.6,0002.4,0012.46,0008.71,0008.15
2024-01-24 12:38:00,SystemResetWarning,0826.3,5.00,000.00,021.5,020.6,000.0,029.9,022.9,16.9,0002.4,0012.51,0008.62,0008.03
2024-01-24 12:39:00,SystemResetWarning,0826.4,5.00,000.00,021.5,020.6,000.0,029.9,022.9,17.0,0002.1,0012.34,0008.45,0007.86
2024-01-24 12:40:00,SystemResetWarning,0826.4,5.00,000.00,021.5,020.6,000.0,029.9,022.9,17.2,0002.2,0011.91,0008.18,0007.64
2024-01-24 12:41:00,SystemResetWarning,0826.4,5.00,000.00,021.5,020.6,000.0,029.9,022.9,17.4,0002.1,0011.74,0008.00,0007.47
2024-01-24 12:42:00,SystemResetWarning,0826.4,5.00,000.00,021.5,020.6,000.0,029.9,022.9,17.6,0001.8,0011.72,0007.92,0007.38
2024-01-24 12:43:00,SystemResetWarning,0826.4,5.00,000.00,021.5,020.6,000.0,029.8,022.9,17.8,0001.2,0011.93,0007.88,0007.32
2024-01-24 12:44:00,SystemResetWarning,0826.4,5.00,000.00,021.5,020.6,000.0,029.8,022.9,17.9,0001.1,0011.78,0007.81,0007.28
2024-01-24 12:45:00,SystemResetWarning,0826.4,5.00,000.00,021.5,020.6,000.0,029.8,022.9,17.9,0001.2,0011.06,0007.71,0007.20
2024-01-24 12:46:00,SystemResetWarning,0826.4,5.00,000.00,021.5,020.6,000.0,029.8,022.9,17.8,0000.4,0010.90,0007.61,0007.10
2024-01-24 12:47:00,SystemResetWarning,0826.4,5.00,000.00,021.5,020.6,000.0,029.8,022.9,17.7,0000.5,0010.78,0007.52,0006.99
2024-01-24 12:48:00,SystemResetWarning,0826.4,5.00,000.00,021.5,020.6,000.0,029.8,022.9,17.5,0000.9,0010.69,0007.41,0006.88
2024-01-24 12:49:00,SystemResetWarning,0826.4,5.00,000.00,021.5,020.6,000.0,029.8,022.9,17.4,0000.8,0010.47,0007.30,0006.82
2024-01-24 12:50:00,SystemResetWarning,0826.4,5.00,000.00,021.5,020.6,000.0,029.8,022.9,17.4,0001.6,0010.28,0007.26,0006.82
2024-01-24 12:51:00,SystemResetWarning,0826.4,5.00,000.00,021.5,020.6,000.0,029.8,022.8,17.5,0001.8,0010.32,0007.30,0006.87
2024-01-24 12:52:00,SystemResetWarning,0826.4,5.00,000.00,021.5,020.6,000.0,029.8,022.8,17.4,0002.3,0010.82,0007.34,0006.91
2024-01-24 12:53:00,SystemResetWarning,0826.3,5.01,000.00,021.5,020.6,000.0,029.9,022.7,17.4,0002.5,0010.71,0007.28,0006.86
2024-01-24 12:54:00,SystemResetWarning,0826.3,5.01,000.00,021.4,020.5,000.0,029.8,022.7,17.3,0002.7,0010.35,0007.15,0006.76
2024-01-24 12:55:00,SystemResetWarning,0826.3,5.00,000.00,021.4,020.4,000.0,029.8,022.6,17.4,0002.6,0010.32,0007.04,0006.63
2024-01-24 12:56:00,SystemResetWarning,0826.3,5.00,000.00,021.4,020.4,000.0,029.8,022.6,17.7,0002.6,0010.17,0006.88,0006.50
2024-01-24 12:57:00,SystemResetWarning,0826.3,5.00,000.00,021.4,020.3,000.0,029.8,022.5,18.1,0003.6,0010.02,0006.72,0006.34
2024-01-24 12:58:00,SystemResetWarning,0826.3,5.00,000.00,021.3,020.3,000.0,029.8,022.5,18.1,0003.8,0009.79,0006.49,0006.13
2024-01-24 12:59:00,SystemResetWarning,0826.3,5.00,000.00,021.3,020.3,000.0,029.8,022.5,18.0,0002.5,0009.55,0006.32,0005.98
